Tracking 30105 objects as of 24-Jan-2025
HD Live streaming from Space Station
objects crossing your sky now

IRIDIUM 42

Track IRIDIUM 42 now!
10-day predictions
IRIDIUM 42 is classified as:


NORAD ID: 25077
Int'l Code: 1997-077A
Perigee: 777.3 km
Apogee: 779.6 km
Inclination: 86.4 °
Period: 100.3 minutes
Semi major axis: 7149 km
RCS: 3.3675 m2 (large)
Launch date: December 8, 1997
Source: United States (US)
Launch site: Taiyaun Space Center, China (TSC)
Your satellite tracking list
Your tracking list is empty




NASA's NSSDC Master Catalog

Two Line Element Set (TLE):
1 25077U 97077A   25023.88938646  .00001067  00000-0  35986-3 0  9993
2 25077  86.3973 299.8868 0001610  98.6169 261.5210 14.36132794420481
Source of the keplerian elements: AFSPC